Weather Roundup
Issued by NWS Chicago, IL

Home | Current Version | Previous Version | Graphics & Text | Print | Product List | Glossary On
Versions: 1 2 3 4 5 6 7 8 9 10 11 12 13 14 15 16 17 18 19 20 21 22 23 24 25 26 27 28 29 30 31 32 33 34 35 36 37 38 39 40 41 42 43 44 45 46 47 48 49 50
000
NZUS59 KLOT 281108
HRRLOT

CHICAGO AREA WEATHER ROUNDUP
NATIONAL WEATHER SERVICE CHICAGO/ROMEOVILLE IL
500 AM CST TUE FEB 28 2017

NOTE: "FAIR" INDICATES FEW OR NO CLOUDS BELOW 12,000 FEET WITH NO
SIGNIFICANT WEATHER AND/OR OBSTRUCTIONS TO VISIBILITY.

* THESE STATIONS ARE NOT UNDER NWS QUALITY CONTROL. THEY ALSO MAY NOT
  REPORT WEATHER SUCH AS PRECIPITATION OR FOG.

ILZ005-006-012>014-019>023-281200-
NORTHEAST ILLINOIS

CITY           SKY/WX    TMP DP  RH WIND       PRES   REMARKS
OHARE          CLOUDY    50  45  83 S16G25    29.85S
MIDWAY         CLOUDY    50  44  80 S16G23    29.87F
AURORA         CLOUDY    49  45  86 S16       29.85S
LANSING*       CLOUDY    47  46  96 S12G17    29.89F
JOLIET*        CLOUDY    50  47  88 S12G18    29.87S
WAUKEGAN       CLOUDY    40  39  97 SE6       29.86S FOG
DUPAGE AIRPORT CLOUDY    49  44  83 S14       29.85S
WHEELING       CLOUDY    49  44  83 S12       29.87S
KANKAKEE*      CLOUDY    47  44  89 SE14      29.90F
MORRIS*        CLOUDY    48  45  89 S14       29.86R
LEWIS AIRPORT* CLOUDY    48  47  98 S17       29.87R
NORTHERLY ISL    N/A     48  43  82 S9          N/A
$$

WIZ051-052-058>065-066-070>072-281200-
SOUTHEAST WISCONSIN

CITY           SKY/WX    TMP DP  RH WIND       PRES   REMARKS
MILWAUKEE      LGT RAIN  42  40  92 SE15      29.87S FOG
KENOSHA*       CLOUDY    41  40  96 SE8       29.86S FOG
RACINE*        CLOUDY    41  39  93 SE9       29.88F FOG
WAUKESHA       LGT RAIN  39  37  93 SE10      29.86S
WEST BEND      LGT RAIN  41  41 100 SE8       29.86S
$$

INZ001>003-010>013-019-020-281200-
NORTHWEST INDIANA

CITY           SKY/WX    TMP DP  RH WIND       PRES   REMARKS
GARY*          CLOUDY    48  45  87 SE14G29   29.89F
MICHIGAN CITY* NOT AVBL
RENSSELAER*    NOT AVBL
VALPARAISO     CLOUDY    48  45  89 S10       29.93F
$$

LMZ740>746-281200-
SOUTHERN LAKE MICHIGAN

STATION/POSITION TIME  SKY/WX   TEMP WIND        PRES    VSBY
                                AIR  DIR/SP/G
                 (UTC)          (F)  (DEG/KT/KT) (MB)    (MI)
HARRISON CRIB    1040            45  170/ 19/ 21   N/A
BURNHAM HARBOR   1100            48  180/  9/ 17   N/A
CALUMET HARBOR   1048            48  160/ 15/ 21 1011.1F
BURNS HARBOR     1040            48  170/ 14/ 20 1012.9F
MICHIGAN CITY    1040            47  140/ 16/ 20   N/A
$$

ABBREVIATIONS USED IN REMARKS
   TC - TEMPERATURE IN CELSIUS
  WCI - WIND CHILL INDEX
   HX - HEAT INDEX
  VSB - VISIBILITY
$$




USA.gov is the U.S. government's official web portal to all federal, state and local government web resources and services.